(115) Thyra
ephemeris date magn radius delta ra dec elong phase
Today15 Sep 202512.02.362 AU1.799 AU18h59m-23°13'111.5°23.3°
Opposition22 Jan 202710.12.195 AU1.211 AU08h23m+21°42'177.4°1.2°
(115) Thyra - 2025-09-15
astro.vanbuitenen.nl


 
-1 year
-1 month
-1 day
Now
+1 day
+1 month
+1 year

The interactive orbit chart above shows the body's path through the solar system and its position at the given date. Green and blue lines are shown perpendicular to the ecliptic plane: Green if the path is above the ecliptic plane, blue if it is below. (Left-click and drag to rotate the view; Right-click and drag to move the view; Use scroll wheel to zoom in our out.)

The orbital elements of Thyra are:

            e (Eccentricity)                : 0.1924085
            a (Semimajor axis)              : 2.3803080
            i (Inclination)                 : 11.58661
            Ω (Longitude of ascending node) : 308.75115
            ω (Argument of perihelion)      : 96.96771
            M (Mean anomaly)                : 247.63858
            Epoch                           : 2025 May 05

            L (Longitude of perihelion)     : 225.86233
            B (Latitude of perihelion)      : 11.49987
            P (Orbital period in years)     : 3.67            
        

The light curve chart below shows the estimated development of the minor planet's magnitude.


The all-sky chart below shows the path of the minor planet over the same period as the light curve. The current position is marked yellow.





The following chart shows the path of the minor planet in the next few days. The field of view is optimized for (~10x50) binoculars and finderscopes. A more printer-friendly version of the same chart can be found below.




Ephemerides:
Date       Time       RA (2000)    DEC (2000)    delta   radius  elong  phase   PA    magn
2025-09-15 00:00 UT   18 59 21.0   -23 13 38     1.799    2.362  111.5   23.3    84   12.0 
2025-09-15 05:27 UT   18 59 26.3   -23 12 30     1.801    2.361  111.3   23.4    84   12.0 
2025-09-16 00:00 UT   18 59 45.0   -23 08 39     1.809    2.360  110.7   23.5    84   12.0 
2025-09-17 00:00 UT   19 00 10.8   -23 03 40     1.819    2.357  109.8   23.7    84   12.0 
2025-09-18 00:00 UT   19 00 38.3   -22 58 41     1.829    2.355  108.9   23.8    84   12.0 
2025-09-19 00:00 UT   19 01 07.6   -22 53 42     1.839    2.353  108.1   23.9    84   12.1 
2025-09-20 00:00 UT   19 01 38.6   -22 48 42     1.849    2.351  107.2   24.1    84   12.1 
2025-09-21 00:00 UT   19 02 11.3   -22 43 43     1.859    2.349  106.4   24.2    84   12.1 
2025-09-22 00:00 UT   19 02 45.7   -22 38 43     1.869    2.347  105.6   24.3    84   12.1 
2025-09-23 00:00 UT   19 03 21.7   -22 33 43     1.879    2.344  104.7   24.5    84   12.1 
2025-09-24 00:00 UT   19 03 59.3   -22 28 42     1.889    2.342  103.9   24.6    84   12.1 
2025-09-25 00:00 UT   19 04 38.6   -22 23 41     1.899    2.340  103.1   24.7    84   12.1 
2025-09-26 00:00 UT   19 05 19.4   -22 18 40     1.910    2.338  102.3   24.8    84   12.2 
2025-09-27 00:00 UT   19 06 01.8   -22 13 38     1.920    2.336  101.5   24.9    84   12.2 
2025-09-28 00:00 UT   19 06 45.8   -22 08 35     1.930    2.334  100.7   25.0    84   12.2 
2025-09-29 00:00 UT   19 07 31.2   -22 03 31     1.941    2.331   99.9   25.0    83   12.2 
2025-09-30 00:00 UT   19 08 18.2   -21 58 27     1.951    2.329   99.1   25.1    83   12.2 
2025-10-01 00:00 UT   19 09 06.6   -21 53 21     1.961    2.327   98.3   25.2    83   12.2 
2025-10-02 00:00 UT   19 09 56.4   -21 48 15     1.972    2.325   97.5   25.3    83   12.2 
2025-10-03 00:00 UT   19 10 47.7   -21 43 08     1.982    2.323   96.7   25.3    83   12.2 
2025-10-04 00:00 UT   19 11 40.3   -21 37 59     1.993    2.321   95.9   25.4    83   12.3 
2025-10-05 00:00 UT   19 12 34.3   -21 32 49     2.003    2.318   95.2   25.4    83   12.3 
2025-10-06 00:00 UT   19 13 29.6   -21 27 38     2.014    2.316   94.4   25.5    83   12.3 
2025-10-07 00:00 UT   19 14 26.3   -21 22 26     2.024    2.314   93.7   25.5    83   12.3 
2025-10-08 00:00 UT   19 15 24.2   -21 17 12     2.035    2.312   92.9   25.6    83   12.3 
2025-10-09 00:00 UT   19 16 23.5   -21 11 57     2.045    2.310   92.2   25.6    83   12.3 
2025-10-10 00:00 UT   19 17 23.9   -21 06 40     2.056    2.307   91.4   25.6    82   12.3 
2025-10-11 00:00 UT   19 18 25.6   -21 01 21     2.066    2.305   90.7   25.7    82   12.3 
2025-10-12 00:00 UT   19 19 28.6   -20 56 01     2.076    2.303   89.9   25.7    82   12.3 
2025-10-13 00:00 UT   19 20 32.7   -20 50 39     2.087    2.301   89.2   25.7    82   12.3 
2025-10-14 00:00 UT   19 21 38.0   -20 45 15     2.097    2.299   88.5   25.7    82   12.4 
2025-10-15 00:00 UT   19 22 44.4   -20 39 48     2.108    2.296   87.8   25.7    82   12.4 


    Terminology:
            
    delta:  distance between minor planet and earth in AU
    radius: distance between minor planet and sun in AU
    magn:   magnitude (brightness) estimate    
    ra:     right ascension in hours (24h = 360deg)
    dec:    declination in degrees
    elong:  elongation in degrees (angle sun-earth-minor planet)    
    phase:  phase angle in degrees (angle sun-minor planet-earth)        
    AU:     Astronomical Unit (mean distance between earth and sun: 149597870.7 km
    

Orbital elements provided by the MPC (Minor Planet Center).
Calculations by a modified version of AAPlus, a C# implementation of the AA+ project by PJ Naughter from the algorithms presented in the book "Astronomical Algorithms" by Jean Meeus.
NGC2000 dso catalog and star labels from VizieR as provided by the Strasbourg astronomical Data Center.
Tycho2 catalog from the ESO archive.